User: anonymous   Login
Location: *
(35.8942°N, 23.3025°E)
Time: 16:44:00
(UTC+00:00)
Language:

Okean 1 - Orbit

View from above orbital plane
View from above orbital plane
View from above satellite
View from above satellite

Ground track
Ground track

The orbit data is extracted from the following two-line orbital elements,

1 19274U 88056A   21340.11323567  .00000298  00000-0  17865-4 0  9998
2 19274  82.5041   2.3191 0013915 136.1049 224.1287 15.06978587820769
Epoch (UTC): 06 December 2021 02:43:03
Eccentricity: 0.0013915
inclination: 82.5041°
perigee height: 536 km
apogee height: 555 km
right ascension of ascending node: 2.3191°
argument of perigee: 136.1049°
revolutions per day: 15.06978587
mean anomaly at epoch: 224.1287°
orbit number at epoch: 82076

The dashed part of the orbit path shows where the satellite is in the earth's shadow,  

DLR